Location: El Chorro
(10.0985°N, 67.3542°W)
Time: 19:16:13
(UTC+00:00)

Okean 2 Rocket - Pass Details

Date: 15 November 2025
Orbit: 610 x 635 km, 82.5° (Epoch: 06 December)

Event Time Altitude Azimuth Distance (km) Brightness Sun altitude
Rises 22:33:56 0° 177° (S) 2,910 6.7 -7.9°
Reaches altitude 10° 22:36:12 10° 174° (S) 1,999 5.8 -8.4°
Maximum altitude 22:40:34 63° 94° (E) 698 3.1 -9.4°
Drops below altitude 10° 22:44:55 10° 13° (NNE) 1,982 5.4 -10.4°
Sets 22:47:09 0° 10° (N) 2,883 6.2 -11.0°
